This is the latest recevied weather packets stored in our database for station/object K3TLB-13. If no packets are shown the sender has not sent any weather packets the latest 10 day(s).
| Time | Temp. | Humidity | Pressure | Rain* | Wind** | Luminosity | Snow |
|---|---|---|---|---|---|---|---|
| 1777908847 | 19.44° C | 38% | 1013.3 hPa | 0 mm | - | - | - |
| 1777908545 | 18.89° C | 40% | 1013.4 hPa | 0 mm | - | - | - |
| 1777908245 | 18.89° C | 43% | 1013.4 hPa | 0 mm | - | - | - |
| 1777907945 | 18.33° C | 40% | 1013.5 hPa | 0 mm | - | - | - |
| 1777907645 | 18.33° C | 40% | 1013.6 hPa | 0 mm | - | - | - |
| 1777907345 | 18.33° C | 40% | 1013.8 hPa | 0 mm | - | - | - |
| 1777907045 | 18.33° C | 41% | 1013.8 hPa | 0 mm | - | - | - |
| 1777906745 | 17.78° C | 42% | 1013.8 hPa | 0 mm | - | - | - |
| 1777906445 | 17.78° C | 42% | 1013.8 hPa | 0 mm | - | - | - |
| 1777906145 | 17.22° C | 42% | 1013.8 hPa | 0 mm | - | - | - |
| 1777905845 | 17.22° C | 42% | 1013.9 hPa | 0 mm | - | - | - |
| 1777905545 | 17.22° C | 42% | 1013.8 hPa | 0 mm | - | - | - |
| 1777905245 | 16.67° C | 43% | 1013.9 hPa | 0 mm | - | - | - |
| 1777904945 | 17.22° C | 43% | 1013.9 hPa | 0 mm | - | - | - |
| 1777904645 | 16.67° C | 43% | 1013.9 hPa | 0 mm | - | - | - |
| 1777904346 | 16.67° C | 46% | 1013.9 hPa | 0 mm | - | - | - |
| 1777904045 | 16.11° C | 45% | 1013.9 hPa | 0 mm | - | - | - |
| 1777903748 | 16.11° C | 46% | 1013.9 hPa | 0 mm | - | - | - |
| 1777903445 | 16.11° C | 47% | 1014 hPa | 0 mm | - | - | - |
| 1777903146 | 15.56° C | 47% | 1014.1 hPa | 0 mm | - | - | - |
| 1777902845 | 15.56° C | 50% | 1014.2 hPa | 0 mm | - | - | - |
| 1777902545 | 15° C | 49% | 1014.2 hPa | 0 mm | - | - | - |
| 1777902245 | 15° C | 49% | 1014.2 hPa | 0 mm | - | - | - |
| 1777902013 | 15° C | 51% | 1014.1 hPa | 0 mm | - | - | - |
| 1777901945 | 15° C | 51% | 1014.1 hPa | 0 mm | - | - | - |
* Rain latest hour (hover to see other rain measurements)
** Current wind speed in m/s (hover to see current wind gust speed)